Powrót do katalogu

SL-16 DEB

AktywnyLEO
NORAD 22456·DEBRIS·🇷🇺 Russia

Wystrzelony Dec 25, 1992 z Baikonur Cosmodrome

Loading…

Następne Przeloty (najbliższe 24 godziny)

TLE

ŚwieżeSource: Space-Track

Epoka: Sep 14, 2026, 12:54 UTC

1 22456U 92093EV  26257.53801911  .00010408  00000-0  15886-2 0  9995
2 22456  71.2253 283.3095 0045260 169.3723 344.5424 14.73308395727970

Śledź SL-16 DEB w czasie rzeczywistym z AllMySat

Download on the App Store